| time (UTC) | temp F | wind direction | speed MPH | gust MPH | rain 1hr in | rain 24hr in | rain mn in | humidity % | barometer mb |
| 20260507223526 | 46 | 131 | 2.0 | 5.0 | 0.00 | 0.00 | 0.00 | 62 | 1020.0 |
| 20260507222453 | 46 | 138 | 1.0 | 2.0 | 0.00 | 0.00 | 0.00 | 63 | 1020.0 |
| 20260507221419 | 47 | 134 | 1.0 | 3.0 | 0.00 | 0.00 | 0.00 | 66 | 1020.0 |
| 20260507220352 | 47 | 113 | 1.0 | 3.0 | 0.00 | 0.00 | 0.00 | 61 | 1020.0 |
| 20260507214302 | 48 | 157 | 0.0 | 3.0 | 0.00 | 0.00 | 0.00 | 56 | 1019.6 |
| 20260507212158 | 48 | 210 | 2.0 | 5.0 | 0.00 | 0.00 | 0.00 | 57 | 1019.6 |
| 20260507211136 | 48 | 221 | 1.0 | 5.0 | 0.00 | 0.00 | 0.00 | 65 | 1019.6 |
| 20260507210110 | 48 | 178 | 1.0 | 4.0 | 0.00 | 0.00 | 0.00 | 67 | 1019.6 |
| 20260507205108 | 48 | 171 | 4.0 | 4.0 | 0.00 | 0.00 | 0.00 | 67 | 1019.6 |
| 20260507204036 | 49 | 209 | 2.0 | 4.0 | 0.00 | 0.00 | 0.00 | 68 | 1019.3 |
| 20260507203015 | 48 | 159 | 4.0 | 6.0 | 0.00 | 0.00 | 0.00 | 64 | 1019.3 |
| 20260507200941 | 49 | 137 | 3.0 | 8.0 | 0.00 | 0.00 | 0.00 | 66 | 1019.3 |
| 20260507195910 | 49 | 151 | 3.0 | 3.0 | 0.00 | 0.00 | 0.00 | 64 | 1019.3 |
| 20260507194843 | 49 | 129 | 0.0 | 5.0 | 0.00 | 0.00 | 0.00 | 62 | 1019.3 |
| 20260507193811 | 50 | 157 | 1.0 | 5.0 | 0.00 | 0.00 | 0.00 | 60 | 1019.0 |
| 20260507192738 | 50 | 171 | 2.0 | 5.0 | 0.00 | 0.00 | 0.00 | 59 | 1019.0 |
| 20260507191650 | 51 | 184 | 1.0 | 5.0 | 0.00 | 0.00 | 0.00 | 60 | 1018.6 |
| 20260507190647 | 51 | 174 | 1.0 | 4.0 | 0.00 | 0.00 | 0.00 | 59 | 1018.6 |
| 20260507185612 | 52 | 179 | 2.0 | 5.0 | 0.00 | 0.00 | 0.00 | 53 | 1018.3 |
| 20260507184540 | 52 | 165 | 2.0 | 7.0 | 0.00 | 0.00 | 0.00 | 51 | 1018.3 |
| 20260507183511 | 52 | 188 | 3.0 | 6.0 | 0.00 | 0.00 | 0.00 | 44 | 1018.3 |
| 20260507182442 | 52 | 170 | 6.0 | 7.0 | 0.00 | 0.00 | 0.00 | 48 | 1018.3 |
| 20260507181410 | 53 | 196 | 2.0 | 8.0 | 0.00 | 0.00 | 0.00 | 44 | 1018.3 |
| 20260507180339 | 53 | 182 | 1.0 | 7.0 | 0.00 | 0.00 | 0.00 | 46 | 1018.3 |
| 20260507175310 | 53 | 207 | 2.0 | 9.0 | 0.00 | 0.00 | 0.00 | 47 | 1017.9 |
| 20260507174309 | 54 | 200 | 6.0 | 7.0 | 0.00 | 0.00 | 0.00 | 42 | 1017.9 |
| 20260507173241 | 54 | 175 | 6.0 | 8.0 | 0.00 | 0.00 | 0.00 | 44 | 1017.9 |
| 20260507172220 | 54 | 199 | 3.0 | 8.0 | 0.00 | 0.00 | 0.00 | 40 | 1017.9 |
| 20260507171152 | 55 | 184 | 5.0 | 8.0 | 0.00 | 0.00 | 0.00 | 42 | 1017.9 |
| 20260507165109 | 56 | 229 | 3.0 | 9.0 | 0.00 | 0.00 | 0.00 | 35 | 1017.6 |
| 20260507164044 | 57 | 173 | 5.0 | 6.0 | 0.00 | 0.00 | 0.00 | 32 | 1017.6 |
| 20260507163013 | 57 | 207 | 2.0 | 7.0 | 0.00 | 0.00 | 0.00 | 32 | 1017.6 |
| 20260507160932 | 57 | 199 | 9.0 | 9.0 | 0.00 | 0.00 | 0.00 | 32 | 1017.6 |
| 20260507155859 | 57 | 232 | 3.0 | 8.0 | 0.00 | 0.00 | 0.00 | 32 | 1017.6 |
| 20260507154832 | 56 | 173 | 6.0 | 9.0 | 0.00 | 0.00 | 0.00 | 30 | 1017.9 |
| 20260507153758 | 56 | 147 | 2.0 | 9.0 | 0.00 | 0.00 | 0.00 | 33 | 1017.6 |
| 20260507152736 | 56 | 173 | 6.0 | 10.0 | 0.00 | 0.00 | 0.00 | 34 | 1017.6 |
| 20260507151704 | 57 | 150 | 5.0 | 11.0 | 0.00 | 0.00 | 0.00 | 35 | 1017.6 |
| 20260507150634 | 57 | 200 | 6.0 | 9.0 | 0.00 | 0.00 | 0.00 | 37 | 1017.6 |
| 20260507145609 | 58 | 217 | 2.0 | 9.0 | 0.00 | 0.00 | 0.00 | 29 | 1017.6 |
| 20260507144541 | 58 | 182 | 7.0 | 7.0 | 0.00 | 0.00 | 0.00 | 32 | 1017.6 |
| 20260507142500 | 58 | 32 | 1.0 | 6.0 | 0.00 | 0.00 | 0.00 | 29 | 1017.6 |
| 20260507141429 | 59 | 355 | 1.0 | 6.0 | 0.00 | 0.00 | 0.00 | 28 | 1017.6 |
| 20260507140415 | 58 | 114 | 2.0 | 8.0 | 0.00 | 0.00 | 0.00 | 27 | 1017.6 |
| 20260507135340 | 58 | 46 | 1.0 | 5.0 | 0.00 | 0.00 | 0.00 | 27 | 1017.6 |
| 20260507134314 | 59 | 235 | 0.0 | 5.0 | 0.00 | 0.00 | 0.00 | 29 | 1017.6 |
| 20260507132254 | 58 | 340 | 3.0 | 7.0 | 0.00 | 0.00 | 0.00 | 32 | 1017.6 |
| 20260507131219 | 57 | 263 | 6.0 | 6.0 | 0.00 | 0.00 | 0.00 | 28 | 1017.6 |
| 20260507130143 | 55 | 307 | 5.0 | 8.0 | 0.00 | 0.00 | 0.00 | 27 | 1017.6 |
| 20260507125143 | 55 | 315 | 4.0 | 8.0 | 0.00 | 0.00 | 0.00 | 30 | 1017.6 |
| 20260507124113 | 57 | 355 | 6.0 | 6.0 | 0.00 | 0.00 | 0.00 | 30 | 1017.6 |
| 20260507123045 | 56 | 9 | 0.0 | 7.0 | 0.00 | 0.00 | 0.00 | 31 | 1017.6 |
| 20260507122015 | 56 | 345 | 2.0 | 7.0 | 0.00 | 0.00 | 0.00 | 30 | 1017.6 |
| 20260507120945 | 55 | 202 | 2.0 | 5.0 | 0.00 | 0.00 | 0.00 | 32 | 1017.6 |
| 20260507115918 | 54 | 264 | 3.0 | 6.0 | 0.00 | 0.00 | 0.00 | 31 | 1017.6 |
| 20260507114845 | 53 | 243 | 1.0 | 5.0 | 0.00 | 0.00 | 0.00 | 30 | 1017.6 |
| 20260507113808 | 54 | 259 | 2.0 | 5.0 | 0.00 | 0.00 | 0.00 | 31 | 1017.9 |
| 20260507112804 | 54 | 207 | 0.0 | 5.0 | 0.00 | 0.00 | 0.00 | 33 | 1017.6 |
| 20260507111735 | 54 | 270 | 2.0 | 6.0 | 0.00 | 0.00 | 0.00 | 36 | 1017.9 |
| 20260507105646 | 53 | 326 | 0.0 | 5.0 | 0.00 | 0.00 | 0.00 | 37 | 1017.9 |
| 20260507104614 | 55 | 355 | 0.0 | 5.0 | 0.00 | 0.00 | 0.00 | 38 | 1017.6 |
| 20260507103545 | 55 | 217 | 1.0 | 4.0 | 0.00 | 0.00 | 0.00 | 38 | 1017.6 |
| 20260507102515 | 54 | 263 | 1.0 | 6.0 | 0.00 | 0.00 | 0.00 | 37 | 1017.6 |
| 20260507101450 | 52 | 290 | 4.0 | 7.0 | 0.00 | 0.00 | 0.00 | 43 | 1017.6 |
| 20260507100415 | 52 | 267 | 1.0 | 6.0 | 0.00 | 0.00 | 0.00 | 49 | 1017.6 |
| 20260507095347 | 50 | 257 | 3.0 | 6.0 | 0.00 | 0.00 | 0.00 | 44 | 1017.6 |
| 20260507094324 | 52 | 286 | 4.0 | 7.0 | 0.00 | 0.00 | 0.00 | 46 | 1017.3 |
| 20260507093258 | 51 | 244 | 2.0 | 5.0 | 0.00 | 0.00 | 0.00 | 44 | 1017.6 |
| 20260507092223 | 52 | 292 | 2.0 | 4.0 | 0.00 | 0.00 | 0.00 | 46 | 1017.6 |
| 20260507091154 | 50 | 355 | 0.0 | 8.0 | 0.00 | 0.00 | 0.00 | 49 | 1017.6 |
| 20260507085106 | 50 | 333 | 3.0 | 6.0 | 0.00 | 0.00 | 0.00 | 50 | 1017.3 |
| 20260507084039 | 49 | 349 | 4.0 | 8.0 | 0.00 | 0.00 | 0.00 | 50 | 1017.3 |
| 20260507083014 | 49 | 333 | 2.0 | 8.0 | 0.00 | 0.00 | 0.00 | 48 | 1017.3 |
| 20260507081947 | 48 | 314 | 4.0 | 8.0 | 0.00 | 0.00 | 0.00 | 47 | 1017.3 |
| 20260507080916 | 48 | 314 | 3.0 | 8.0 | 0.00 | 0.00 | 0.00 | 47 | 1017.3 |
| 20260507074833 | 47 | 313 | 3.0 | 9.0 | 0.00 | 0.00 | 0.00 | 48 | 1016.9 |
| 20260507073807 | 47 | 303 | 3.0 | 10.0 | 0.00 | 0.00 | 0.00 | 48 | 1016.9 |
| 20260507071723 | 46 | 310 | 3.0 | 8.0 | 0.00 | 0.00 | 0.00 | 50 | 1016.9 |
| 20260507070655 | 46 | 340 | 4.0 | 9.0 | 0.00 | 0.00 | 0.00 | 52 | 1016.6 |
| 20260507065631 | 45 | 300 | 3.0 | 10.0 | 0.00 | 0.00 | 0.00 | 53 | 1016.6 |
| 20260507064544 | 45 | 338 | 3.0 | 11.0 | 0.00 | 0.00 | 0.00 | 56 | 1016.6 |
| 20260507063525 | 45 | 320 | 4.0 | 10.0 | 0.00 | 0.00 | 0.00 | 56 | 1016.6 |
| 20260507062454 | 44 | 351 | 1.0 | 8.0 | 0.00 | 0.00 | 0.00 | 55 | 1016.6 |
| 20260507061425 | 44 | 350 | 4.0 | 8.0 | 0.00 | 0.00 | 0.00 | 55 | 1016.3 |
| 20260507060353 | 44 | 5 | 4.0 | 10.0 | 0.00 | 0.00 | 0.00 | 57 | 1016.3 |
| 20260507055327 | 43 | 342 | 4.0 | 10.0 | 0.00 | 0.00 | 0.00 | 58 | 1016.3 |
| 20260507054259 | 42 | 333 | 3.0 | 8.0 | 0.00 | 0.00 | 0.00 | 58 | 1016.3 |
| 20260507053236 | 42 | 347 | 3.0 | 9.0 | 0.00 | 0.00 | 0.00 | 59 | 1016.3 |
| 20260507051154 | 42 | 327 | 3.0 | 9.0 | 0.00 | 0.00 | 0.00 | 59 | 1015.9 |
| 20260507050132 | 42 | 342 | 4.0 | 9.0 | 0.00 | 0.00 | 0.00 | 58 | 1015.9 |
| 20260507045102 | 42 | 350 | 4.0 | 10.0 | 0.00 | 0.00 | 0.00 | 58 | 1015.9 |
| 20260507044035 | 41 | 13 | 9.0 | 11.0 | 0.00 | 0.00 | 0.00 | 59 | 1015.9 |
| 20260507043007 | 41 | 321 | 4.0 | 10.0 | 0.00 | 0.00 | 0.00 | 58 | 1015.6 |
| 20260507041939 | 41 | 5 | 4.0 | 8.0 | 0.00 | 0.00 | 0.00 | 59 | 1015.6 |
| 20260507035857 | 41 | 23 | 5.0 | 6.0 | 0.00 | 0.00 | 0.00 | 59 | 1015.6 |
| 20260507033817 | 41 | 337 | 4.0 | 9.0 | 0.00 | 0.00 | 0.00 | 59 | 1015.2 |
| 20260507032755 | 41 | 333 | 3.0 | 8.0 | 0.00 | 0.00 | 0.00 | 59 | 1015.2 |
| 20260507031724 | 42 | 323 | 4.0 | 9.0 | 0.00 | 0.00 | 0.00 | 58 | 1015.2 |
| 20260507030657 | 42 | 46 | 3.0 | 8.0 | 0.00 | 0.00 | 0.00 | 55 | 1015.2 |
| 20260507025630 | 42 | 336 | 6.0 | 11.0 | 0.00 | 0.00 | 0.00 | 56 | 1015.2 |
| 20260507024601 | 42 | 330 | 3.0 | 10.0 | 0.00 | 0.00 | 0.00 | 57 | 1014.9 |
| 20260507023533 | 42 | 340 | 6.0 | 9.0 | 0.00 | 0.00 | 0.00 | 56 | 1014.9 |
| 20260507022506 | 42 | 43 | 4.0 | 10.0 | 0.00 | 0.00 | 0.00 | 55 | 1014.9 |
| 20260507021445 | 42 | 338 | 6.0 | 11.0 | 0.00 | 0.00 | 0.00 | 54 | 1014.9 |
| 20260507020417 | 42 | 316 | 6.0 | 8.0 | 0.00 | 0.00 | 0.00 | 55 | 1014.9 |
| 20260507015351 | 42 | 360 | 4.0 | 10.0 | 0.00 | 0.00 | 0.00 | 55 | 1014.9 |
| 20260507014342 | 42 | 326 | 5.0 | 9.0 | 0.00 | 0.00 | 0.00 | 54 | 1014.6 |
| 20260507013316 | 42 | 325 | 4.0 | 8.0 | 0.00 | 0.00 | 0.00 | 55 | 1014.6 |
| 20260507012248 | 43 | 331 | 3.0 | 8.0 | 0.00 | 0.00 | 0.00 | 58 | 1014.6 |
| 20260507011225 | 42 | 41 | 5.0 | 5.0 | 0.00 | 0.00 | 0.00 | 59 | 1014.6 |
| 20260507010155 | 43 | 333 | 4.0 | 8.0 | 0.00 | 0.00 | 0.00 | 60 | 1014.2 |
| 20260507004106 | 43 | 333 | 1.0 | 5.0 | 0.00 | 0.00 | 0.00 | 61 | 1014.2 |
| 20260507003041 | 43 | 355 | 4.0 | 5.0 | 0.00 | 0.00 | 0.00 | 60 | 1014.2 |
| 20260507002026 | 43 | 351 | 4.0 | 6.0 | 0.00 | 0.00 | 0.00 | 60 | 1014.2 |
| 20260507000956 | 43 | 334 | 4.0 | 9.0 | 0.00 | 0.00 | 0.00 | 59 | 1014.2 |
| 20260506235935 | 43 | 346 | 2.0 | 9.0 | 0.00 | 0.00 | 0.00 | 59 | 1013.9 |
| 20260506233850 | 43 | 360 | 3.0 | 10.0 | 0.00 | 0.00 | 0.00 | 56 | 1013.9 |
| 20260506232823 | 44 | 342 | 2.0 | 6.0 | 0.00 | 0.00 | 0.00 | 57 | 1013.9 |
| 20260506231756 | 44 | 315 | 2.0 | 12.0 | 0.00 | 0.00 | 0.00 | 56 | 1013.9 |
| 20260506230726 | 44 | 347 | 2.0 | 7.0 | 0.00 | 0.00 | 0.00 | 56 | 1013.5 |
| 20260506224706 | 44 | 16 | 4.0 | 8.0 | 0.00 | 0.00 | 0.00 | 57 | 1013.5 |